HOOPOE (42718 NORAD) Tracking and Keplerian Element Data

This shows tracking and keplerian element data for the satellite.

Feedback or suggestion? Click here.




ElementValue
Catalog42718
NameHOOPOE
Epoch Orbit6575
Epoch Day198.47273354
Epoch Year2018
RAAN197.4382
Inclination51.6304
Eccentricity0.0004199
Argument of Perigee16.1471
Mean Anonmoly343.9662
Mean Motion15.75527168
Decay Rate0.00041782
L11 42718U 98067LZ 18198.47273354 .00041782 00000-0 27141-3 0 9994
L22 42718 51.6304 197.4382 0004199 16.1471 343.9662 15.75527168 65753

Live tracking and technical data element details for HOOPOE (NORAD 42718). HOOPOE can be tracked NOW for your location showing map with azimuth and elevation plus other details from your city location.

Track the satellite on the map from your city or location and see movement details for azimuth, elevation, latitude, longitude, range, height, and movement on the map or in text.







IsCatalogInMostPopularTable: catalog: 42718, numindb: 106
Update: records affected: 1



GetName: 42718 HOOPOE

Hit Count: updated at: Thu, 19 Jul 2018 21:13:14 GMT